Weather in Kon-Kolodez

Russia / Lipetsk Oblast     52°08′07″N   39°09′48″E
temp.,
°C
wind,
m/s
gust,
m/s
humid.,
%
clouds,
%
prec.,
mm/h
press.,
hPa
HPBL,
m
15 may, sat
sat1500:00+17sse4149062 0.1 1010317
03:00+16s3894100 0.1 1010186
06:00+16s2594100 0.0 1010128
09:00+20ssw4671100 0.0 1011497
12:00+22ssw465571 0.0 10121059
15:00+23ssw58505 0.0 10121497
18:00+21sw48640 0.0 1013700
21:00+16ssw34800 0.1 101460
16 may, sun
sun1600:00+14ssw22849 0.0 101412
03:00+13ssw12870 0.0 101510
06:00+15se2285100 0.0 101556
09:00+20sse23665 0.0 1015415
12:00+24sse24495 0.0 10151939
15:00+25sw134443 0.0 10141914
18:00+23nne226397 0.0 101373
21:00+18ene228199 0.1 101327
17 may, mon
mon1700:00+16e3487100 0.0 101354
03:00+14ene36815 0.0 1012110
06:00+15ene37845 0.0 1012156
09:00+23se5105269 0.0 1011536
12:00+27se613420 0.0 10101571
15:00+27se714455 0.0 10101906
18:00+24se713556 0.0 1009859
21:00+20ese6166539 0.0 1008445
18 may, tue
tue1800:00+18se5136279 0.0 1008327
03:00+15se3107233 0.0 1008216
06:00+15sse3793100 1.8 1009199
09:00+19s478269 2.6 1009526
12:00+22ssw4660100 0.0 1009867
15:00+19ssw4774100 0.1 1010440
18:00+22sse36637 0.0 1008760
21:00+18sse3580100 0.2 1008110
19 may, wed
wed1900:00+15sse2491100 0.4 100878
03:00+14sse3794100 0.6 1007151
06:00+14s41093100 0.2 1006310
09:00+15s4894100 2.9 1006651
12:00+15wsw498643 2.8 1007716
15:00+18wsw7107040 5.3 10081447
18:00+17wsw5107524 1.3 1010997
21:00+13sw37872 1.3 1012117